• In Uzbekistan
  • List of Countries
  • For 7 days
  • Water Temperature
  • Satellite Maps
  • Weather Map
  • Weather Widgets
  • user-avatar
    Login

    Hourly Weather Nowodworze

    Today, 23 February, Saturday

    Time Temperature Precipitation Wind Pressure Humidity
    00:00 -7°C° 0 mm 5 mps 757 mmHg 46%
    01:00 -8°C° 0 mm 6 mps 758 mmHg 39%
    02:00 -7°C° 0 mm 5 mps 758 mmHg 40%
    03:00 -7°C° 0 mm 5 mps 758 mmHg 42%
    04:00 -8°C° 0 mm 4 mps 758 mmHg 44%
    05:00 -8°C° 0 mm 4 mps 758 mmHg 46%
    06:00 -8°C° 0 mm 4 mps 759 mmHg 48%
    07:00 -7°C° 0 mm 3 mps 760 mmHg 49%
    08:00 -7°C° 0 mm 3 mps 760 mmHg 47%
    09:00 -6°C° 0 mm 3 mps 760 mmHg 46%
    10:00 -5°C° 0 mm 3 mps 760 mmHg 45%
    11:00 -5°C° 0 mm 3 mps 760 mmHg 42%
    12:00 -4°C° 0 mm 3 mps 760 mmHg 40%
    13:00 -3°C° 0 mm 2 mps 760 mmHg 37%
    14:00 -3°C° 0 mm 2 mps 760 mmHg 37%
    15:00 -3°C° 0 mm 2 mps 759 mmHg 37%
    16:00 -3°C° 0 mm 2 mps 759 mmHg 37%
    17:00 -3°C° 0 mm 2 mps 759 mmHg 40%
    18:00 -2°C° 0 mm 1 mps 759 mmHg 42%
    19:00 -2°C° 0 mm 1 mps 759 mmHg 45%
    20:00 -3°C° 0 mm 0 mps 759 mmHg 45%
    21:00 -3°C° 0 mm 0 mps 759 mmHg 45%
    22:00 -3°C° 0 mm 0 mps 759 mmHg 45%
    23:00 -3°C° 0 mm 0 mps 759 mmHg 45%

    Tomorrow, 24 February, Sunday

    Time Temperature Precipitation Wind Pressure Humidity
    00:00 -2°C° 0 mm 1 mps 759 mmHg 45%
    01:00 -2°C° 0 mm 1 mps 758 mmHg 45%
    02:00 -2°C° 0 mm 1 mps 758 mmHg 43%
    03:00 -2°C° 0 mm 1 mps 758 mmHg 42%
    04:00 -2°C° 0 mm 1 mps 757 mmHg 40%
    05:00 -1°C° 0 mm 1 mps 757 mmHg 39%
    06:00 -1°C° 0 mm 1 mps 757 mmHg 39%
    07:00 -1°C° 0 mm 1 mps 757 mmHg 38%
    08:00 0°C° 0 mm 1 mps 756 mmHg 34%
    09:00 -1°C° 0 mm 2 mps 756 mmHg 31%
    10:00 +1°C° 0 mm 2 mps 756 mmHg 27%
    11:00 +1°C° 0 mm 2 mps 756 mmHg 26%
    12:00 +1°C° 0 mm 3 mps 756 mmHg 26%
    13:00 +2°C° 0 mm 3 mps 755 mmHg 25%
    14:00 +2°C° 0 mm 3 mps 755 mmHg 29%
    15:00 +2°C° 0 mm 3 mps 755 mmHg 33%
    16:00 +2°C° 0 mm 3 mps 755 mmHg 37%
    17:00 +2°C° 0 mm 2 mps 755 mmHg 42%
    18:00 +1°C° 0 mm 2 mps 755 mmHg 47%
    19:00 -1°C° 0 mm 2 mps 755 mmHg 52%
    20:00 -1°C° 0 mm 2 mps 755 mmHg 53%
    21:00 -1°C° 0 mm 2 mps 755 mmHg 55%
    22:00 -2°C° 0 mm 2 mps 755 mmHg 56%
    23:00 -2°C° 0 mm 2 mps 755 mmHg 56%

    Day after tomorrow, 25 February, Monday

    Time Temperature Precipitation Wind Pressure Humidity
    00:00 -2°C° 0 mm 3 mps 755 mmHg 56%
    01:00 -2°C° 0 mm 3 mps 755 mmHg 56%
    02:00 -2°C° 0 mm 3 mps 755 mmHg 55%
    03:00 -2°C° 0 mm 3 mps 754 mmHg 55%
    04:00 -2°C° 0 mm 3 mps 754 mmHg 54%
    05:00 -1°C° 0 mm 3 mps 754 mmHg 55%
    06:00 -1°C° 0 mm 3 mps 754 mmHg 55%
    07:00 -1°C° 0 mm 3 mps 754 mmHg 56%
    08:00 -1°C° 0 mm 4 mps 754 mmHg 53%
    09:00 +1°C° 0 mm 4 mps 754 mmHg 51%
    10:00 +2°C° 0 mm 5 mps 754 mmHg 48%
    11:00 +3°C° 0 mm 5 mps 754 mmHg 49%
    12:00 +5°C° 0 mm 5 mps 753 mmHg 50%
    13:00 +6°C° 0 mm 5 mps 753 mmHg 51%
    14:00 +6°C° 0 mm 5 mps 753 mmHg 55%
    15:00 +5°C° 0 mm 4 mps 752 mmHg 60%
    16:00 +5°C° 0 mm 4 mps 752 mmHg 65%
    17:00 +4°C° 0 mm 4 mps 752 mmHg 70%
    18:00 +3°C° 0 mm 4 mps 752 mmHg 75%
    19:00 0°C° 0 mm 4 mps 752 mmHg 80%
    20:00 0°C° 0 mm 4 mps 752 mmHg 82%
    21:00 0°C° 0 mm 4 mps 752 mmHg 84%
    22:00 0°C° 0 mm 4 mps 752 mmHg 86%
    23:00 0°C° 0 mm 4 mps 752 mmHg 86%

    26 February, Tuesday

    Time Temperature Precipitation Wind Pressure Humidity
    00:00 0°C° 0 mm 4 mps 752 mmHg 87%
    01:00 0°C° 0 mm 4 mps 752 mmHg 88%
    02:00 0°C° 0 mm 4 mps 751 mmHg 89%
    03:00 -1°C° 0 mm 4 mps 751 mmHg 90%
    04:00 -1°C° 0 mm 5 mps 751 mmHg 91%
    05:00 -1°C° 0 mm 5 mps 750 mmHg 91%
    06:00 -1°C° 0 mm 5 mps 750 mmHg 91%
    07:00 -1°C° 0 mm 5 mps 750 mmHg 92%
    08:00 0°C° 0 mm 5 mps 749 mmHg 90%
    09:00 +1°C° 0 mm 6 mps 749 mmHg 89%
    10:00 +2°C° 0 mm 6 mps 748 mmHg 88%
    11:00 +2°C° 0.1 mm 6 mps 748 mmHg 86%
    12:00 +3°C° 0.1 mm 7 mps 748 mmHg 85%
    13:00 +3°C° 0.1 mm 7 mps 747 mmHg 84%
    14:00 +3°C° 0 mm 7 mps 747 mmHg 84%
    15:00 +3°C° 0 mm 7 mps 747 mmHg 83%
    16:00 +3°C° 0 mm 7 mps 747 mmHg 83%
    17:00 +3°C° 0 mm 6 mps 747 mmHg 84%
    18:00 +3°C° 0 mm 6 mps 748 mmHg 85%
    19:00 +2°C° 0 mm 5 mps 748 mmHg 85%
    20:00 +2°C° 0 mm 5 mps 748 mmHg 88%
    21:00 +1°C° 0 mm 4 mps 749 mmHg 90%
    22:00 0°C° 0 mm 4 mps 749 mmHg 92%
    23:00 +1°C° 0 mm 3 mps 749 mmHg 92%

    27 February, Wednesday

    Time Temperature Precipitation Wind Pressure Humidity
    00:00 0°C° 0 mm 3 mps 749 mmHg 93%
    01:00 -1°C° 0 mm 3 mps 749 mmHg 94%
    02:00 -1°C° 0 mm 3 mps 749 mmHg 94%
    03:00 -1°C° 0 mm 2 mps 749 mmHg 95%
    04:00 -2°C° 0 mm 2 mps 749 mmHg 95%
    05:00 -1°C° 0 mm 3 mps 750 mmHg 94%
    06:00 -1°C° 0 mm 3 mps 750 mmHg 93%
    07:00 -1°C° 0 mm 3 mps 750 mmHg 93%
    08:00 -1°C° 0 mm 4 mps 750 mmHg 84%
    09:00 +1°C° 0 mm 4 mps 750 mmHg 75%
    10:00 +3°C° 0 mm 4 mps 750 mmHg 66%
    11:00 +5°C° 0 mm 4 mps 749 mmHg 61%
    12:00 +6°C° 0 mm 5 mps 749 mmHg 55%
    13:00 +7°C° 0 mm 5 mps 748 mmHg 50%
    14:00 +7°C° 0 mm 5 mps 747 mmHg 53%
    15:00 +7°C° 0 mm 5 mps 747 mmHg 56%
    16:00 +7°C° 0 mm 5 mps 746 mmHg 60%
    17:00 +6°C° 0 mm 4 mps 746 mmHg 65%
    18:00 +5°C° 0 mm 4 mps 746 mmHg 70%
    19:00 +4°C° 0 mm 4 mps 745 mmHg 76%
    20:00 +4°C° 0 mm 4 mps 745 mmHg 76%
    21:00 +4°C° 0 mm 4 mps 745 mmHg 77%
    22:00 +4°C° 0 mm 4 mps 745 mmHg 78%
    23:00 +3°C° 0 mm 4 mps 744 mmHg 78%

    28 February, Thursday

    Time Temperature Precipitation Wind Pressure Humidity
    00:00 +3°C° 0 mm 4 mps 744 mmHg 79%
    01:00 +3°C° 0 mm 4 mps 743 mmHg 80%
    02:00 +3°C° 0 mm 4 mps 743 mmHg 79%
    03:00 +3°C° 0 mm 4 mps 742 mmHg 78%
    04:00 +3°C° 0 mm 4 mps 741 mmHg 76%
    05:00 +3°C° 0 mm 4 mps 741 mmHg 73%
    06:00 +3°C° 0 mm 4 mps 740 mmHg 69%
    07:00 +3°C° 0 mm 4 mps 740 mmHg 65%
    08:00 +5°C° 0 mm 5 mps 739 mmHg 60%
    09:00 +6°C° 0 mm 7 mps 739 mmHg 54%
    10:00 +8°C° 0 mm 9 mps 738 mmHg 48%
    11:00 +8°C° 0 mm 9 mps 738 mmHg 52%
    12:00 +10°C° 0 mm 9 mps 737 mmHg 55%
    13:00 +10°C° 0 mm 9 mps 737 mmHg 58%
    14:00 +8°C° 0 mm 9 mps 737 mmHg 60%
    15:00 +8°C° 0 mm 9 mps 737 mmHg 62%
    16:00 +9°C° 0 mm 8 mps 736 mmHg 64%
    17:00 +7°C° 0 mm 9 mps 737 mmHg 67%
    18:00 +6°C° 0 mm 9 mps 737 mmHg 70%
    19:00 +5°C° 0 mm 9 mps 737 mmHg 72%
    20:00 +5°C° 0.1 mm 9 mps 737 mmHg 71%
    21:00 +5°C° 0.1 mm 8 mps 737 mmHg 70%
    22:00 +5°C° 0.1 mm 8 mps 737 mmHg 69%
    23:00 +4°C° 0 mm 8 mps 737 mmHg 70%
    Show more